Regional Weather Roundup
Issued by NWS

Current Version | Previous Version | Text Only | Print | Product List | Glossary On
Versions: 1 2 3 4 5 6 7 8 9 10 11 12 13 14 15 16 17 18 19 20 21 22 23 24 25 26 27 28 29 30 31 32 33 34 35 36 37 38 39 40 41 42 43 44 45 46 47 48 49 50
000
ASUS44 KOUN 102210
RWROK

WEATHER ROUNDUP FOR OKLAHOMA
NATIONAL WEATHER SERVICE NORMAN OK
500 PM CDT MON AUG 10 2020

NOTE: "FAIR" INDICATES FEW OR NO CLOUDS BELOW 12,000 FEET WITH NO
      SIGNIFICANT WEATHER AND/OR OBSTRUCTIONS TO VISIBILITY.

OKZ001>007-009>012-014-015-017-102300-
NORTHWEST OKLAHOMA AND THE PANHANDLE

CITY           SKY/WX    TMP DP  RH WIND       PRES   REMARKS
GAGE           SUNNY     99  60  27 S24G33    29.86F HX  99
GUYMON         PTSUNNY   91  65  41 SW12      29.90F HX  93
ENID/WOODRING  PTSUNNY   97  70  41 S16       29.88F HX 103
$$

OKZ016-021>023-033>039-044-045-102300-
SOUTHWEST OKLAHOMA

CITY           SKY/WX    TMP DP  RH WIND       PRES   REMARKS
LAWTON/REGL    SUNNY     99  62  29 S18       29.89F HX 100
LAWTON/FT SILL SUNNY     99  63  30 S16       29.88F HX 100
FREDERICK      SUNNY    100  65  31 S14G22    29.86F HX 103
CLINTON        SUNNY     97  58  27 S21G29    29.92F HX  96
HOBART         SUNNY     98  60  28 S14G26    29.90F HX  98
ALTUS AFB      MOSUNNY  102  58  23 S15       29.88F HX 101
$$

OKZ018>020-024>031-102300-
CENTRAL OKLAHOMA

CITY           SKY/WX    TMP DP  RH WIND       PRES   REMARKS
OKLAHOMA CITY  MOSUNNY   92  66  42 S14       29.92F HX  94
OKC/TINKER AFB MOSUNNY   95  66  38 S14G22    29.92F HX  98
STILLWATER     SUNNY     96  72  45 S15       29.89F HX 104
GUTHRIE        SUNNY     96  69  41 S18G25    29.89F HX 102
$$

OKZ008-013-054>072-102300-
NORTHEAST OKLAHOMA

CITY           SKY/WX    TMP DP  RH WIND       PRES   REMARKS
TULSA          PTSUNNY   95  73  48 SW9G21    29.90F HX 104
TULSA/JONES    SUNNY     99  73  43 S7G20     29.91F HX 109
PONCA CITY     MOSUNNY   96  68  39 S9G20     29.88F HX 101
BARTLESVILLE   PTSUNNY   80  70  71 E5        29.92F
MUSKOGEE       SUNNY     95  72  47 SW14      29.93F HX 103
$$

OKZ032-040>043-046>053-073>077-102300-
SOUTH CENTRAL/SOUTHEAST OKLAHOMA

CITY           SKY/WX    TMP DP  RH WIND       PRES   REMARKS
ARDMORE/DWNTWN SUNNY     95  61  31 S8G17     29.92F HX  95
MCALESTER      SUNNY     95  70  44 S8        29.94F HX 101
$$




USA.gov is the U.S. government's official web portal to all federal, state and local government web resources and services.